Location: Berry Creek
(51.8849°N, 111.7341°W)
Time: 14:20:34
(UTC-07:00)

Daily predictions for brighter satellites

Satellite Brightness Start Highest point End
(mag) Time Altitude Azimuth Time Altitude Azimuth Time Altitude Azimuth
GENESIS II 4.2 17:01:03 10° NW 17:04:59 64° NE 17:08:53 10° SE
Cosmos 44 Rocket 4.4 17:01:15 10° NNW 17:05:14 25° NNE 17:09:17 10° E
Cosmos 220 Rocket 4.1 17:01:11 10° SSW 17:05:38 85° ESE 17:10:05 10° NNE
NOSS 3-2 (A) 3.6 17:01:27 10° SW 17:07:34 87° SE 17:14:28 10° NE
CSL-04 Rocket 3.7 17:03:12 10° SE 17:08:24 59° ENE 17:13:41 10° N
Cosmos 1825 3.3 17:05:48 10° NNW 17:09:31 50° W 17:13:12 10° S
Cosmos 614 Rocket 4.0 17:04:34 10° SSW 17:09:48 85° ESE 17:15:04 10° NNE
Cosmos 1346 3.5 17:10:12 10° SSE 17:12:09 25° E 17:14:08 10° NE
Cosmos 1455 3.8 17:08:39 10° SW 17:12:10 35° WNW 17:15:40 10° N
Cosmos 1340 3.5 17:09:15 10° SSE 17:12:33 30° E 17:15:53 10° NNE
Cosmos 371 Rocket 3.5 17:10:15 10° NNW 17:15:05 80° WSW 17:19:53 10° SSE
Cosmos 1461 4.3 17:10:39 10° NW 17:15:08 51° SW 17:19:43 10° SSE
Cosmos 1140 Rocket 3.6 17:11:34 10° SSW 17:16:47 80° WNW 17:22:01 10° NNE
Meteor 2-10 Rocket 3.7 17:12:34 10° S 17:17:41 56° E 17:23:02 10° NNE
Cosmos 1437 4.2 17:17:07 10° SE 17:19:26 19° E 17:21:46 10° NE
Cosmos 304 Rocket 4.0 17:15:15 10° NNW 17:19:56 47° ENE 17:24:35 10° SE
ERBS 2.9 17:16:37 10° WNW 17:19:59 61° SW 17:23:21 10° SE
EO 1 Delta rocket 4.4 17:18:36 10° S 17:23:12 68° W 17:28:24 10° NNW
Cosmos 1869 3.8 17:19:53 10° SSW 17:23:46 62° WNW 17:27:43 10° N
Cosmos 468 Rocket 4.0 17:18:53 10° NNW 17:24:08 83° ENE 17:29:18 10° SSE
Cosmos 1725 Rocket 4.2 17:19:29 10° SSE 17:25:33 52° E 17:31:36 10° NNE
ERS-2 3.0 17:24:42 10° SE 17:27:54 28° ENE 17:31:06 10° N
CENTAUR R/B 3.0 17:22:05 10° SSW 17:27:56 46° ESE 17:34:35 10° NE
COSMOS 2406 3.6 17:22:31 10° NNW 17:28:17 72° WSW 17:33:58 10° SSE
BREEZE-M DEB (TANK) 1.9 17:29:43 10° WSW 17:31:39 48° S 17:34:21 11° E
Tsikada Rocket 3.9 17:28:15 10° N 17:34:26 76° ENE 17:40:36 10° SSE
Cosmos 1844 Rocket 2.8 17:29:22 10° S 17:34:52 56° ESE 17:40:22 10° NE
Cosmos 2061 Rocket 4.1 17:28:46 10° S 17:35:04 87° W 17:41:31 10° N
COSMO-SKYMED 1 4.0 17:32:37 10° NE 17:35:37 19° E 17:38:40 10° SE
IRS-1A Rocket 4.4 17:30:44 10° SE 17:36:25 60° ENE 17:42:03 10° N
COSMOS 2455 3.5 17:34:35 10° S 17:40:02 37° ESE 17:44:57 13° NE
Cosmos 44 3.8 17:38:34 10° NNW 17:42:45 35° NE 17:46:29 13° E
YAOGAN 1 2.7 17:38:52 10° SE 17:43:03 50° ENE 17:47:15 10° N
SL-23 DEB 4.0 17:40:16 10° W 17:43:44 86° S 17:48:10 15° E
Cosmos 1763 Rocket 3.4 17:40:33 10° NNW 17:45:50 78° ENE 17:51:01 10° SSE
CZ-4 R/B 1.2 17:42:03 10° SSE 17:45:53 69° ENE 17:49:44 10° N
Cosmos 1346 Rocket 4.3 17:43:00 10° SW 17:46:37 36° WNW 17:50:17 10° N
Cosmos 2016 Rocket 4.1 17:41:06 10° S 17:47:27 86° WNW 17:53:45 10° N
CSL-04 Debris 4.4 17:47:16 10° S 17:52:41 74° WSW 17:58:08 10° NNW
Cosmos 1933 3.3 17:48:41 10° S 17:52:44 87° ESE 17:56:48 10° N
BREEZE-M DEB (TANK) 4.0 17:50:45 10° SSW 17:52:46 25° SSE 17:54:11 18° ESE
Cosmos 2346 Rocket 4.4 17:46:44 10° N 17:52:52 76° ENE 17:59:03 10° SSE
Cosmos 1707 Rocket 4.4 17:49:01 10° SSW 17:53:23 52° WNW 17:57:46 10° N
SL-27 R/B 2.6 17:50:54 10° NNW 17:54:08 42° ENE 17:57:19 10° SE
Cosmos 1814 Rocket 4.1 17:49:35 10° NNW 17:54:59 85° WSW 18:00:21 10° SSE
Meteor 1-26 Rocket 4.3 17:49:52 10° S 17:55:16 54° E 18:00:39 10° NNE
ATLAS CENTAUR R/B 3.5 17:54:49 10° NW 17:56:34 13° N 17:58:21 10° NNE
Cosmos 1833 Rocket 2.9 17:51:47 10° NNW 17:57:16 50° NE 18:02:44 10° SE
Meteor 2-12 Rocket 4.4 17:51:27 10° S 17:57:31 74° E 18:03:36 10° NNE
DNEPR-1 R/B 3.5 17:53:44 10° SW 17:58:02 80° NW 18:01:18 17° NE
FENGYUN 3A 4.0 17:53:23 10° SE 17:58:27 42° ENE 18:03:30 10° N
ALOS 2.7 17:54:40 10° SE 17:58:58 38° ENE 18:03:19 10° N
Cosmos 1844 3.7 17:55:18 10° SSW 18:01:01 68° ESE 18:06:26 12° NE
Cosmos 1633 3.0 17:58:52 10° N 18:02:19 38° ENE 18:05:46 10° SE
MOS 1 4.3 17:57:08 10° SSE 18:02:45 64° ENE 18:08:24 10° NNW
Cosmos 1703 Rocket 4.3 18:00:37 10° SSE 18:04:36 33° E 18:07:31 16° NE
Cosmos 2227 Rocket 4.4 18:04:42 10° NNW 18:06:28 11° N 18:08:14 10° N
Okean 2 Rocket 3.8 18:02:49 10° N 18:06:52 31° ENE 18:10:56 10° SE
Cosmos 2278 Rocket 2.7 18:01:44 10° S 18:06:59 40° ESE 18:10:32 19° NE
SMAP 3.8 18:04:31 10° S 18:09:06 57° W 18:13:43 10° NNW
Cosmos 2263 Rocket 3.7 18:05:56 10° WSW 18:10:53 30° NW 18:15:50 10° NNE
Meteor 1-28 Rocket 3.0 18:07:31 10° NNE 18:11:15 71° ESE 18:14:57 10° S
ATLAS 3B R/B 3.6 18:05:48 10° W 18:12:30 40° NNW 18:17:46 15° NE
Cosmos 1484 Rocket 3.9 18:09:15 10° S 18:12:59 46° W 18:16:48 10° NNW
Ariane Rocket 4.0 18:09:33 10° S 18:14:29 49° W 18:19:26 10° NNW
EO 1 Del DPAF 3.7 18:16:55 32° ENE 18:17:56 39° E 18:21:32 10° SSE
Cosmos 540 Rocket 3.4 18:12:52 10° NNW 18:18:02 61° ENE 18:23:09 10° SE
Cosmos 841 Rocket 3.7 18:14:17 10° NNW 18:19:35 78° WSW 18:24:51 10° SSE
Cosmos 1464 Rocket 4.3 18:14:15 10° SSE 18:19:51 39° E 18:25:30 10° NNE
Cosmos 1606 3.2 18:16:57 10° SSE 18:20:19 35° E 18:20:19 35° E
MTI 3.9 18:20:10 44° ENE 18:20:43 51° E 18:23:51 10° S
Landsat 4 3.6 18:18:47 18° NNE 18:21:30 66° ESE 18:25:16 10° S
BREEZE-M R/B 4.2 18:19:41 10° W 18:21:59 25° SSW 18:24:58 11° SE
SKYMED 2 3.7 18:21:13 20° NNE 18:24:02 49° E 18:28:15 10° S
Cosmos 1908 Rocket 3.6 18:20:03 10° NNW 18:24:26 81° W 18:28:46 10° S
USA 234 3.9 18:24:09 25° E 18:27:00 36° SE 18:32:55 10° SSW
Cosmos 1486 Rocket 4.1 18:23:23 10° S 18:28:26 52° ESE 18:31:08 26° NE
Cosmos 1782 3.1 18:25:00 10° SSE 18:28:50 44° E 18:29:16 42° ENE
Sich 1 Rocket 3.6 18:27:48 10° NNW 18:32:14 82° W 18:36:40 10° S
Meteor 2-6 Rocket 4.4 18:29:47 10° SSE 18:34:53 42° E 18:37:48 24° NE
Cosmos 2233 Rocket 4.1 18:30:17 10° SSW 18:36:33 81° W 18:42:48 10° N
Meteor 1-20 Rocket 4.4 18:31:27 10° NNW 18:37:04 73° W 18:42:32 10° S
Resurs 01 Rocket 4.0 18:40:23 10° NNE 18:40:23 10° NNE 18:40:25 10° NNE
Cosmos 2297 Rocket 4.4 18:37:17 10° NNW 18:38:39 11° N 18:40:01 10° NNE
SPOT 3 Rocket 3.5 18:33:38 10° SSE 18:38:53 86° WSW 18:44:08 10° NNW
Lacrosse 5 2.2 18:35:25 10° W 18:40:24 56° NNW 18:42:16 35° NE
Cosmos 2082 Rocket 2.1 18:35:32 10° NNW 18:41:17 89° ENE 18:46:58 10° SSE
CZ-4C R/B 2.8 18:36:41 10° NW 18:43:25 66° NE 18:47:31 29° ESE
Cosmos 1354 Rocket 4.4 18:39:15 10° S 18:44:00 39° ESE 18:44:00 39° ESE
Cosmos 44 Rocket 3.1 18:42:37 10° NW 18:47:29 79° NE 18:49:10 41° SE
NOSS 3-2 (C) 4.3 18:42:51 10° W 18:48:55 47° NNW 18:53:07 22° NE
NOAA 12 4.1 18:43:36 10° SSE 18:48:56 83° WSW 18:54:18 10° NNW
FengYun 1-2 T 4.1 18:46:44 10° SSE 18:52:11 64° ENE 18:57:42 10° N
Meteor 2-20 Rocket 4.4 18:52:11 10° N 18:58:14 58° ENE 19:01:51 25° SE
Meteor 1-27 Rocket 4.2 18:53:27 10° SSE 18:58:11 42° ESE 18:58:11 42° ESE
ERS-2 4.2 18:58:16 10° SSW 19:01:31 29° W 19:04:48 10° NW
Cosmos 292 Rocket 3.6 18:58:24 10° NNW 19:03:13 89° E 19:04:35 47° SSE
Cosmos 1513 Rocket 4.4 18:57:41 10° S 19:03:56 69° E 19:10:07 10° NNE
Okean 1-7 2.9 19:01:18 10° S 19:05:41 88° E 19:06:01 76° NNE
Meteor 1-10 Rocket 4.1 19:00:26 10° S 19:06:05 76° E 19:10:57 15° NNE
Cosmos 1782 Rocket 4.4 19:04:27 10° NNW 19:08:39 50° W 19:12:51 10° S
Meteor 1-5 Rocket 4.4 19:03:35 10° N 19:07:52 46° NNE 19:07:52 46° NNE
COSMO-SKYMED 1 3.0 19:09:51 26° N 19:12:10 60° WNW 19:16:26 10° SSW
Cosmos 1891 Rocket 4.3 19:09:43 10° S 19:15:53 81° E 19:21:59 10° NNE
CENTAUR R/B 3.1 19:12:12 10° WSW 19:18:31 59° NW 19:21:47 33° NNE
Cosmos 1844 Rocket 4.0 19:13:55 10° WSW 19:19:03 35° NW 19:22:34 18° N
Cosmos 44 3.8 19:19:40 10° NW 19:24:11 54° SW 19:24:58 48° SSW
COSMOS 2455 3.3 19:19:54 10° WSW 19:25:49 57° NW 19:28:07 36° NNE
Timation 2 Rocket 4.0 19:20:06 10° NNW 19:27:00 88° ENE 19:28:49 53° SE
Cosmos 2221 Rocket 4.0 19:24:19 10° SSW 19:28:14 58° WSW 19:28:14 58° WSW
Nadezhda 4 Rocket 3.9 19:23:46 10° N 19:29:57 86° W 19:35:10 15° S
Meteor 1-11 Rocket 3.9 19:24:22 10° NNW 19:30:18 74° W 19:35:57 11° S
Cosmos 2034 Rocket 3.9 19:29:05 10° S 19:35:28 87° W 19:41:52 10° N
ALOS 4.0 19:32:18 10° SSW 19:36:29 32° W 19:40:42 10° NNW
Cosmos 1833 Rocket 4.1 19:36:00 10° NW 19:41:05 36° WSW 19:46:09 10° S
Cosmos 2297 4.0 19:38:11 10° SSW 19:42:46 60° SSW 19:42:46 60° SSW
Cosmos 1092 Rocket 3.9 19:38:51 10° N 19:44:33 77° N 19:44:33 77° N
Cosmos 2278 Rocket 3.1 19:45:36 10° WSW 19:51:03 46° NW 19:52:24 39° NNW
Cosmos 2227 Rocket 4.5 19:50:26 10° N 19:51:47 13° N 19:51:47 13° N
ATLAS 3B R/B 3.8 19:58:51 10° WNW 20:04:57 31° N 20:05:01 30° N
USA 234 3.4 20:11:31 68° SW 20:11:31 68° SW 20:17:08 10° WSW
Lacrosse 5 3.8 20:19:05 10° WNW 20:21:28 26° NW 20:21:28 26° NW
CZ-4C R/B 3.6 20:25:21 10° NW 20:31:59 45° WSW 20:32:45 44° SW
CENTAUR R/B 4.2 21:04:27 10° WNW 21:08:58 31° NNW 21:08:58 31° NNW
